Regional Weather Roundup
Issued by NWS

Home | Current Version | Previous Version | Graphics & Text | Print | Product List | Glossary On
Versions: 1 2 3 4 5 6 7 8 9 10 11 12 13 14 15 16 17 18 19 20 21 22 23 24 25 26 27 28 29 30 31 32 33 34 35 36 37 38 39 40 41 42 43 44 45 46 47 48 49 50
260
ASUS45 KSLC 300910
RWRUT

UTAH REGIONAL WEATHER ROUNDUP
NATIONAL WEATHER SERVICE SALT LAKE CITY UT
300 AM MDT FRI SEP 30 2016

UTZ001>011-023>025-301000-

NORTHERN UTAH

CITY           SKY/WX    TMP DP  RH WIND       PRES   REMARKS
BRIGHAM CITY     N/A     55  51  86 NW3       30.19S
HILL AFB       MOCLDY    60  48  64 SE7       30.21R
LOGAN          PTCLDY    49  48  97 CALM      30.20S
OGDEN          MOCLDY    61  48  62 SE10      30.19R
PROVO AIRPORT  PTCLDY    60  48  64 SE10      30.23S
SALT LAKE CITY PTCLDY    66  50  56 SE7       30.18S
VERNAL         CLOUDY    50  49  96 CALM      30.31S
WENDOVER       PTCLDY    59  46  63 N5        30.17S
HEBER CITY     PTCLDY    50  43  76 CALM      30.28S
WEST JORDAN    CLOUDY    63  49  61 S16       30.21S

$$

UTZ012>022-026-027-301000-

SOUTHERN/CENTRAL UTAH

CITY           SKY/WX    TMP DP  RH WIND       PRES   REMARKS
BLANDING       PTCLDY    53  51  94 N3        30.44S
BRYCE CANYON   CLOUDY    50  47  89 CALM      30.43S
CEDAR CITY     CLEAR     51  45  79 SW6       30.29S
DELTA          PTCLDY    59  45  58 S10       30.23S
MILFORD        CLEAR     55  47  74 SE7       30.25S
MOAB/CYNLANDS  MOCLDY    58  54  86 NW8       30.28S
PRICE          CLOUDY    54  51  90 CALM      30.35S
ST GEORGE      MOSUNNY   64  54  68 SE8       30.21R

$$

REGIONAL REPORTS     COLORADO/ARIZONA

CITY           SKY/WX    TMP DP  RH WIND       PRES   REMARKS
CRAIG, CO      LGT RAIN  52  50  93 SE3       30.36F
GRAND JUNCTION CLOUDY    57  55  93 SE6       30.32F
RIFLE          LGT RAIN  56  56 100 CALM      30.35S
MONTROSE       CLOUDY    55  53  93 S3        30.38F
CORTEZ         CLOUDY    53  51  93 CALM      30.36F
PAGE, AZ       MOCLDY    62  57  83 S6        30.28S
GRAND CANYON   PTCLDY    52  48  86 E5        30.38F
KINGMAN        PTCLDY    68  52  56 SE14      30.18S
FLAGSTAFF      FOG       49  49 100 CALM      30.41S VSB 1/4

$$

REGIONAL REPORTS    NEVADA/IDAHO/WYOMING

CITY           SKY/WX    TMP DP  RH WIND       PRES   REMARKS
LAS VEGAS, NV  PTCLDY    75  42  30 S5        30.07S
ELY            LGT RAIN  54  44  69 S10       30.30S
ELKO           PTCLDY    53  45  74 CALM      30.20R
POCATELLO, ID  CLEAR     51  47  86 CALM      30.18S
BURLEY         MOCLDY    57  49  74 E9        30.13S
EVANSTON, WY   CLOUDY    50  42  74 S8        30.34S
ROCK SPRINGS   CLOUDY    51  44  77 SW6       30.32S

$$




USA.gov is the U.S. government's official web portal to all federal, state and local government web resources and services.